Tracking 31013 objects as of 11-Jul-2025
HD Live streaming from Space Station
objects crossing your sky now

STARLINK-6235

Track STARLINK-6235 now!
10-day predictions
STARLINK-6235 is classified as:


NORAD ID: 57094
Int'l Code: 2023-088AY
Perigee: 565.0 km
Apogee: 567.4 km
Inclination: 43.0 °
Period: 95.8 minutes
Semi major axis: 6937 km
RCS: Unknown
Launch date: June 22, 2023
Source: United States (US)
Launch site: AIR FORCE WESTERN TEST RANGE (AFWTR)
Your satellite tracking list
Your tracking list is empty




NASA's NSSDC Master Catalog

Two Line Element Set (TLE):
1 57094U 23088AY  25191.65115709 -.00000158  00000-0  33857-5 0  9994
2 57094  43.0051 329.3897 0001722 267.7059  92.3586 15.02534242114118
Source of the keplerian elements: AFSPC